HA8LNU Weather Reports


Display with metric or nautical units.
time (UTC)temp
F
wind
direction
speed
MPH
gust
MPH
rain 1hr
in
rain 24hr
in
rain mn
in
humidity
%
barometer
mb
20260906002538 60 291 1.0 3.0 0.00 0.02 0.00 79 1022.3
20260906001536 60 203 1.0 3.0 0.00 0.02 0.00 80 1022.3
20260906000533 60 0.0 0.0 0.00 0.02 0.00 81 1022.3
20260905235532 59 147 1.0 4.0 0.00 0.02 0.00 82 1022.2
20260905234550 59 153 1.0 3.0 0.00 0.02 0.00 83 1022.0
20260905233527 58 200 1.0 2.0 0.00 0.02 0.00 83 1022.2
20260905232525 58 218 1.0 3.0 0.00 0.02 0.00 84 1022.1
20260905231523 58 198 1.0 2.0 0.00 0.02 0.00 85 1022.0
20260905230541 58 135 0.0 2.0 0.00 0.02 0.00 85 1021.9
20260905225519 58 0.0 1.0 0.00 0.02 0.00 86 1021.9
20260905224516 58 0.0 1.0 0.00 0.02 0.00 87 1021.8
20260905223614 58 162 0.0 2.0 0.00 0.02 0.00 87 1021.9
20260905222612 58 219 1.0 4.0 0.00 0.02 0.00 86 1021.8
20260905221610 58 0.0 1.0 0.00 0.02 0.00 85 1021.7
20260905220608 58 0.0 0.0 0.00 0.02 0.00 85 1021.8
20260905215606 58 0.0 1.0 0.00 0.02 0.02 84 1021.7
20260905214604 59 180 0.0 2.0 0.00 0.02 0.02 84 1021.8
20260905213602 59 0.0 0.0 0.00 0.02 0.02 84 1021.5
20260905212700 59 0.0 1.0 0.00 0.02 0.02 83 1021.5
20260905211558 60 0.0 1.0 0.00 0.02 0.02 83 1021.5
20260905210555 60 0.0 1.0 0.00 0.02 0.02 82 1021.3
20260905205553 60 225 0.0 2.0 0.00 0.02 0.02 82 1021.2
20260905204551 60 225 0.0 2.0 0.00 0.02 0.02 82 1021.4
20260905203549 61 0.0 2.0 0.00 0.02 0.02 81 1021.2
20260905202547 61 180 0.0 2.0 0.01 0.02 0.02 81 1021.1
20260905201544 61 230 1.0 4.0 0.01 0.02 0.02 81 1021.2
20260905200542 62 0.0 1.0 0.01 0.02 0.02 81 1021.2
20260905195540 61 201 2.0 6.0 0.01 0.02 0.02 82 1021.1
20260905194538 61 225 0.0 2.0 0.01 0.02 0.02 83 1021.2
20260905193536 61 0.0 1.0 0.01 0.02 0.02 84 1020.9
20260905192534 61 0.0 2.0 0.00 0.01 0.01 83 1020.8
20260905191532 62 0.0 0.0 0.01 0.01 0.01 82 1020.5
20260905190529 62 0.0 1.0 0.01 0.01 0.01 81 1020.5
20260905185547 63 180 0.0 2.0 0.01 0.01 0.01 80 1020.4
20260905184525 64 0.0 1.0 0.01 0.01 0.01 72 1020.2
20260905183523 65 212 1.0 3.0 0.01 0.01 0.01 70 1020.3
20260905182521 68 125 1.0 4.0 0.01 0.01 0.01 62 1020.4
20260905181539 70 19 3.0 7.0 0.00 0.00 0.00 55 1020.2
20260905180516 70 0.0 1.0 0.00 0.00 0.00 52 1019.7
20260905175614 70 299 1.0 2.0 0.00 0.00 0.00 53 1019.7
20260905174732 70 242 0.0 3.0 0.00 0.00 0.00 54 1019.6
20260905173610 69 185 2.0 4.0 0.00 0.00 0.00 56 1019.3
20260905172608 69 262 2.0 4.0 0.00 0.00 0.00 56 1019.1
20260905171606 69 311 3.0 6.0 0.00 0.00 0.00 57 1019.1
20260905170604 69 348 3.0 7.0 0.00 0.00 0.00 59 1018.9
20260905165601 69 277 3.0 5.0 0.00 0.00 0.00 60 1018.7
20260905164620 69 321 4.0 8.0 0.00 0.00 0.00 60 1018.7
20260905163557 68 19 4.0 7.0 0.00 0.00 0.00 62 1018.9
20260905162555 68 321 5.0 11.0 0.00 0.00 0.00 62 1018.9
20260905161553 69 0 2.0 5.0 0.00 0.00 0.00 59 1019.0
20260905160551 71 270 4.0 8.0 0.00 0.00 0.00 51 1018.9
20260905155549 71 322 5.0 11.0 0.00 0.00 0.00 50 1018.6
20260905154606 71 304 6.0 14.0 0.00 0.00 0.00 50 1018.5
20260905153544 72 315 7.0 12.0 0.00 0.00 0.00 51 1018.6
20260905152542 73 354 7.0 14.0 0.00 0.00 0.00 50 1018.5
20260905151540 75 341 6.0 14.0 0.00 0.00 0.00 49 1018.2
20260905150538 76 320 8.0 12.0 0.00 0.00 0.00 45 1018.3
20260905145536 79 340 6.0 11.0 0.00 0.00 0.00 37 1018.2
20260905144533 81 3 7.0 13.0 0.00 0.00 0.00 33 1017.8
20260905143531 82 303 6.0 12.0 0.00 0.00 0.00 30 1017.9
20260905142609 83 309 7.0 15.0 0.00 0.00 0.00 28 1018.0
20260905141527 83 330 6.0 14.0 0.00 0.00 0.00 27 1018.0
20260905140525 83 315 8.0 9.0 0.00 0.00 0.00 27 1018.0
20260905135603 83 346 7.0 12.0 0.00 0.00 0.00 30 1018.0
20260905134521 83 22 5.0 9.0 0.00 0.00 0.00 34 1018.1
20260905133518 83 355 5.0 9.0 0.00 0.00 0.00 34 1017.9
20260905132516 82 37 5.0 10.0 0.00 0.00 0.00 34 1018.0
20260905131654 82 349 7.0 15.0 0.00 0.00 0.00 34 1018.1
20260905130632 82 332 6.0 11.0 0.00 0.00 0.00 33 1018.0
20260905125610 83 329 7.0 13.0 0.00 0.00 0.00 32 1018.0
20260905124608 83 351 6.0 11.0 0.00 0.00 0.00 33 1017.8
20260905123626 84 344 6.0 11.0 0.00 0.00 0.00 33 1017.7
20260905122603 85 0 9.0 12.0 0.00 0.00 0.00 32 1017.7
20260905121602 86 287 7.0 13.0 0.00 0.00 0.00 33 1017.6
20260905120559 86 293 10.0 14.0 0.00 0.00 0.00 35 1017.5
20260905115637 86 1 8.0 12.0 0.00 0.00 0.00 36 1017.7
20260905114555 87 324 11.0 17.0 0.00 0.00 0.00 35 1017.6
20260905113553 87 1 9.0 16.0 0.00 0.00 0.00 35 1017.5
20260905112551 86 329 10.0 17.0 0.00 0.00 0.00 35 1017.5
20260905111549 85 322 10.0 18.0 0.00 0.00 0.00 35 1017.5
20260905110606 86 341 10.0 19.0 0.00 0.00 0.00 35 1017.4
20260905105604 87 352 10.0 18.0 0.00 0.00 0.00 33 1017.3
20260905104542 90 332 9.0 20.0 0.00 0.00 0.00 29 1017.0
20260905103540 91 284 5.0 11.0 0.00 0.00 0.00 28 1017.0
20260905102538 92 323 8.0 11.0 0.00 0.00 0.00 26 1016.8
20260905101556 92 321 8.0 13.0 0.00 0.00 0.00 25 1016.9
20260905100533 93 0 6.0 9.0 0.00 0.00 0.00 26 1016.7
20260905095531 93 354 5.0 11.0 0.00 0.00 0.00 26 1016.7
20260905094529 92 332 4.0 6.0 0.00 0.00 0.00 26 1016.7
20260905093527 91 212 4.0 11.0 0.00 0.00 0.00 28 1016.7
20260905092525 89 308 3.0 6.0 0.00 0.00 0.00 31 1016.5
20260905091603 91 204 3.0 9.0 0.00 0.00 0.00 29 1016.6
20260905090520 90 271 5.0 11.0 0.00 0.00 0.00 31 1016.6
20260905085518 89 245 3.0 8.0 0.00 0.00 0.00 32 1016.4
20260905084537 90 245 5.0 9.0 0.00 0.00 0.00 31 1016.1
20260905083614 90 183 3.0 8.0 0.00 0.00 0.00 31 1016.2
20260905082612 88 238 3.0 7.0 0.00 0.00 0.00 32 1016.2
20260905081610 87 226 3.0 7.0 0.00 0.00 0.00 33 1016.2
20260905080608 83 270 2.0 4.0 0.00 0.00 0.00 34 1016.1
20260905075606 83 195 2.0 5.0 0.00 0.00 0.00 34 1016.0
20260905074604 85 214 4.0 11.0 0.00 0.00 0.00 32 1015.9
20260905073602 85 243 3.0 7.0 0.00 0.00 0.00 33 1016.2
20260905072559 83 248 2.0 4.0 0.00 0.00 0.00 34 1016.0
20260905071617 82 252 4.0 9.0 0.00 0.00 0.00 34 1016.0
20260905070555 81 172 3.0 5.0 0.00 0.00 0.00 40 1016.0
20260905065553 79 185 3.0 8.0 0.00 0.00 0.00 41 1016.0
20260905064551 77 208 3.0 6.0 0.00 0.00 0.00 43 1016.0
20260905063549 76 176 3.0 6.0 0.00 0.00 0.00 44 1016.0
20260905062546 74 233 3.0 8.0 0.00 0.00 0.00 47 1016.1
20260905061544 73 220 3.0 8.0 0.00 0.00 0.00 48 1016.2
20260905060542 72 135 3.0 4.0 0.00 0.00 0.00 52 1016.2
20260905055540 71 206 2.0 4.0 0.00 0.00 0.00 53 1016.4
20260905054538 70 168 2.0 4.0 0.00 0.00 0.00 54 1016.3
20260905053535 69 214 3.0 6.0 0.00 0.00 0.00 55 1016.3
20260905052533 68 216 2.0 5.0 0.00 0.00 0.00 57 1016.3
20260905051532 67 148 2.0 5.0 0.00 0.00 0.00 58 1016.2
20260905050529 67 164 2.0 4.0 0.00 0.00 0.00 59 1016.1
20260905045527 66 215 2.0 4.0 0.00 0.00 0.00 60 1016.2
20260905044525 65 178 2.0 4.0 0.00 0.00 0.00 61 1016.1
20260905043523 65 221 1.0 3.0 0.00 0.00 0.00 61 1016.2
20260905042540 64 201 1.0 3.0 0.00 0.00 0.00 61 1016.1
20260905041518 64 154 1.0 3.0 0.00 0.00 0.00 61 1016.0
20260905040516 64 225 1.0 2.0 0.00 0.00 0.00 61 1015.9
20260905035614 64 187 2.0 4.0 0.00 0.00 0.00 61 1015.7
20260905034612 64 168 1.0 3.0 0.00 0.00 0.00 61 1015.7
20260905033610 64 204 0.0 3.0 0.00 0.00 0.00 61 1015.8
20260905032608 64 223 1.0 3.0 0.00 0.00 0.00 61 1015.8
20260905031626 64 202 1.0 3.0 0.00 0.00 0.00 61 1015.8
20260905030603 64 173 1.0 4.0 0.00 0.00 0.00 61 1015.9
20260905025641 64 135 1.0 2.0 0.00 0.00 0.00 62 1015.8
20260905024559 64 208 1.0 3.0 0.00 0.00 0.00 62 1015.8
20260905023557 63 203 0.0 2.0 0.00 0.00 0.00 63 1015.9
20260905022555 64 114 0.0 2.0 0.00 0.00 0.00 62 1016.0
20260905021553 64 225 0.0 2.0 0.00 0.00 0.00 61 1015.9
20260905020551 64 0.0 1.0 0.00 0.00 0.00 61 1016.0
20260905015548 64 180 0.0 2.0 0.00 0.00 0.00 60 1015.9
20260905014606 64 196 1.0 3.0 0.00 0.00 0.00 60 1015.8
20260905013545 64 196 0.0 2.0 0.00 0.00 0.00 61 1015.9
20260905012542 64 225 1.0 2.0 0.00 0.00 0.00 61 1015.9
20260905011540 64 180 0.0 2.0 0.00 0.00 0.00 61 1015.9
20260905010538 64 225 0.0 3.0 0.00 0.00 0.00 61 1016.0
20260905005535 64 225 0.0 2.0 0.00 0.00 0.00 61 1015.8
20260905004533 64 225 0.0 2.0 0.00 0.00 0.00 62 1016.0
20260905003531 64 0.0 1.0 0.00 0.00 0.00 62 1016.0